星链-5161 (STARLINK-5161 )

导读

STARLINK-5161是美国太空探索技术公司(SpaceX)于2022年10月28日发射的星链(Starlink)低轨通信卫星,属于Starlink V1.0平台,运行于近地轨道,轨道倾角约43度。作为星链全球卫星互联网项目的组成部分,它搭载Ku/Ka波段通信载荷,配备氪工质霍尔推进器,具备自主避撞能力,旨在为全球提供高速低延迟宽带服务,寿命末期会再入大气层销毁。

基本信息
目录编号:
54163
目录名称:
STARLINK-5161
国际标识:
2022-141G
轨道中心:
EARTH
卫星名称:
星链-5161
卫星全名:
星链-5161 (STARLINK-5161 )
卫星状态:
在轨 (已飞行1415 天)
发射日期:
2022-10-28 UTC
国别 :
美国 (US)
星等 :
--
该卫星已列入 空间交会检测服务 Space Conjunction Data Service (SCDS) ,当前飞行风险评估等级: 无高风险
轨道信息
数据来源 国际轨道数据 AOE轨道数据
星历时间 2026-09-12T14:57:28+0800
6小时前
查看轨道信息
2026-09-10T23:00:00+0800
1天前
查看轨道信息
半长轴 6840.88km 6840.906km
偏心率 0.00008 0.0001661
轨道倾角 53.160° 53.161°
近地点辐角 104.905° 41.029°
升交点赤经 232.099° 239.896°
平近点角 255.204° 117.329°
近地点 462.195km 461.632km
远地点 463.291km 463.906km
周期 93.849分钟 93.849分钟
每日圈数 15.343868 15.343782
详细信息
固有亮度:
5
最大亮度:
2.5
卫星平台:
Starlink v1.5
覆盖范围:
全球
运营商:
太空探索技术公司
运营商所在国:
美国
制造商(研发单位):
太空探索技术公司
制造商所在国:
美国
使用方式:
暂无
卫星简介
星链(Starlink)计划是由太空探索技术公司(SpaceX)提出的一个巨型低轨卫星互联网星座项目,计划在2019年至2024年间在太空搭建由约1.2万颗卫星组成的“星链”网络,其中1584颗将部署在地球上空550千米处的近地轨道,并从2020年开始工作。该卫星仍在工作。
2D轨道图
3D轨道图
轨道高度分析图
轨道倾角分析图
轨道综合分析图
查看轨道综合分析图
交会数据列表
事件ID 空间交会对象 最接近时刻(TCA) 交会距离 交会风险概率(CRP) 交会风险指数(CRI) 操作
CDM_260914-232005-416306-282121
2026-09-14T
23:20:23+0000
0.728 km
远距离
4.675346E-5 中风险 0.68
CDM_260914-171205-416306-612921
2026-09-14T
17:12:52+0000
0.733 km
远距离
2.068479E-5 中风险 0.61
CDM_260914-114405-416306-612921
2026-09-14T
11:44:35+0000
0.837 km
远距离
1.328139E-5 中风险 0.57
CDM_260914-131805-416306-612921
2026-09-14T
13:18:23+0000
1.671 km
极远距离
1.416837E-6 低风险 0.38
CDM_260914-184505-416306-178721
2026-09-14T
18:45:57+0000
2.733 km
极远距离
1.310883E-6 低风险 0.37
CDM_260914-063705-317505-416321
2026-09-14T
06:37:14+0000
2.871 km
极远距离
1.267746E-6 低风险 0.37
CDM_260914-150505-416305-835721
2026-09-14T
15:05:28+0000
2.963 km
极远距离
1.099802E-6 低风险 0.36
CDM_260914-153905-416306-612921
2026-09-14T
15:39:04+0000
2.636 km
极远距离
5.564461E-7 极低风险 0.3
CDM_260914-184605-416306-612921
2026-09-14T
18:46:40+0000
2.875 km
极远距离
5.003317E-7 极低风险 0.29
与全量物体交会距离演化趋势
与全量物体交会风险概率演化趋势